Location: Caltech
(34.1382°N, 118.1253°W)
Time: 04:16:05
(UTC-07:00)

Hamsat - Visible Passes

Search period start: 29 April 2017 00:00
Search period end: 09 May 2017 00:00
Orbit: 587 x 617 km, 97.6° (Epoch: 27 April)

Date Brightness Start Highest point End Pass type
(mag) Time Alt. Az. Time Alt. Az. Time Alt. Az.
29 Apr ? 03:47:56 10° ENE 03:49:03 11° E 03:50:09 10° ESE visible
29 Apr ? 05:20:53 10° N 05:25:04 50° WNW 05:29:12 10° SSW visible
30 Apr ? 03:58:22 10° ENE 04:00:55 15° E 04:03:26 10° SE visible
30 Apr ? 05:32:49 10° N 05:36:46 36° WNW 05:40:41 10° SW visible
01 May ? 04:09:28 10° NE 04:12:46 21° E 04:16:00 10° SE visible
02 May ? 04:20:50 10° NE 04:24:35 29° E 04:28:17 10° SSE visible
03 May ? 04:32:19 10° NNE 04:36:23 40° E 04:40:23 10° SSE visible
04 May ? 04:43:55 10° NNE 04:48:10 56° E 04:52:20 10° S visible
05 May ? 04:55:36 10° NNE 04:59:56 80° ESE 05:04:11 10° S visible
06 May ? 05:07:22 10° N 05:11:40 73° WNW 05:15:54 10° SSW visible
07 May ? 03:46:39 10° E 03:47:21 10° E 03:48:04 10° E visible
07 May ? 05:19:13 10° N 05:23:23 51° WNW 05:27:30 10° SSW visible
08 May ? 03:56:48 10° ENE 03:59:13 15° E 04:01:37 10° SE visible
